DW7102 Weather Reports


time (UTC)temp
F
wind
direction
speed
knots
gust
knots
rain 1hr
in
rain 24hr
in
rain mn
in
humidity
%
barometer
mb
20260505213711 52 184 4.3 6.1 0.00 0.34 0.34 91 998.2
20260505213203 52 210 1.7 7.8 0.00 0.34 0.34 91 998.4
20260505210202 52 176 3.5 5.2 0.05 0.34 0.34 92 997.4
20260505200704 51 305 1.7 7.8 0.22 0.31 0.31 91 997.6
20260505200203 51 281 3.5 11.3 0.21 0.29 0.29 90 997.7
20260505193704 52 300 5.2 11.3 0.09 0.17 0.17 89 996.6
20260505183704 59 20 2.6 2.6 0.00 0.08 0.08 77 993.2
20260505183203 59 60 1.7 4.3 0.00 0.08 0.08 77 993.4
20260505173704 58 97 2.6 6.1 0.02 0.08 0.08 80 994.5
20260505170704 59 98 0.0 0.9 0.00 0.06 0.06 68 994.9
20260505170203 59 71 0.9 7.0 0.00 0.06 0.06 67 994.8
20260505163203 56 58 2.6 7.8 0.00 0.06 0.06 70 994.9
20260505153204 57 53 0.9 2.6 0.00 0.06 0.06 73 995.4
20260505150204 54 333 0.0 7.0 0.00 0.06 0.06 72 996.1
20260505123159 53 80 0.9 6.1 0.00 0.06 0.06 69 996.8
20260505120200 52 97 3.5 7.8 0.00 0.06 0.06 70 997.3
20260505110200 51 102 6.1 12.2 0.00 0.06 0.06 71 997.8
20260505093702 46 86 0.9 2.6 0.00 0.06 0.06 78 998.2
20260505093201 47 120 0.9 8.7 0.00 0.06 0.06 76 998.1
20260505090700 46 67 4.3 7.8 0.01 0.06 0.06 80 998.4
20260505090200 46 75 0.0 6.1 0.01 0.06 0.06 80 998.7
20260505083700 43 79 1.7 2.6 0.01 0.06 0.06 88 999.0
20260505083200 43 349 0.9 5.2 0.01 0.06 0.06 87 999.2
20260505080201 44 20 0.9 6.1 0.00 0.05 0.05 85 999.6
20260505073201 42 123 0.9 2.6 0.00 0.05 0.05 88 999.7
20260505070700 41 73 0.9 2.6 0.00 0.05 0.05 89 999.9
20260505070200 41 54 0.0 2.6 0.00 0.05 0.05 88 1000.0
20260505063700 42 46 1.7 2.6 0.05 0.05 0.05 84 1000.2
20260505053701 44 96 0.9 2.6 0.00 0.00 0.00 78 1001.1
20260505053201 44 83 0.9 6.1 0.00 0.00 0.00 78 1000.9
20260505050701 43 69 1.7 4.3 0.00 0.00 0.00 78 1001.4
20260505033201 48 72 1.7 6.1 0.00 0.00 0.00 70 1002.4
20260505030201 49 105 0.0 2.6 0.00 0.00 0.00 68 1002.4
20260505023701 48 64 1.7 2.6 0.00 0.00 0.00 68 1002.4
20260505020202 50 306 0.0 1.7 0.00 0.00 0.00 65 1002.6
20260505013702 52 269 0.9 2.6 0.00 0.00 0.00 62 1002.5
20260505010701 53 245 1.7 4.3 0.00 0.00 0.00 60 1002.4
20260505010202 53 265 2.6 6.1 0.00 0.00 0.00 60 1002.4
20260504233203 55 255 1.7 7.0 0.00 0.00 0.00 51 1001.2
20260504230702 58 265 1.7 7.0 0.00 0.00 0.00 46 1000.9
20260504230202 59 265 1.7 10.4 0.00 0.00 0.00 45 1000.8